{"data":{"norad_id":65092,"epoch":"2026-05-25T02:01:12.963648Z","epoch_age_seconds":64886,"freshness":"FRESH","line1":"1 65092U 25167Q   26145.08417782  .00028609  00000+0  97408-3 0  9993","line2":"2 65092  53.1602  31.9914 0001055  78.3387 281.7732 15.30208323 45179","mean_motion":15.30208323,"eccentricity":0.0001055,"inclination_deg":53.1602,"raan_deg":31.9914,"arg_perigee_deg":78.3387,"mean_anomaly_deg":281.7732,"bstar":0.00097408,"rev_number":4517,"period_min":94.104833855357,"perigee_km":474.46719253264,"apogee_km":475.91324457575,"semimajor_km":6853.3272185542,"source":"CELESTRAK","updated_at":"2026-05-25T13:38:20.685233Z"}}